{"data":{"norad_id":61709,"intl_designator":"2024-196C","name":"STARLINK-32314","alt_names":[],"object_type":"PAYLOAD","status":"ACTIVE","operator":null,"country":"US","launch_date":"2024-10-30","launch_site_code":"AFETR","launch_vehicle":null,"mission":null,"orbit_class":"UNKNOWN","rcs_meters":null,"size_class":null,"mass_kg":null,"dimensions":null,"purposes":["comms"],"wikipedia_slug":null,"has_3d_model":false,"image_url":null,"decayed_at":null,"tle_current":{"epoch":"2026-05-25T03:17:59.579232Z","epoch_age_seconds":63221,"freshness":"FRESH","line1":"1 61709U 24196C   26145.13749513 -.00000932  00000+0 -19349-4 0  9991","line2":"2 61709  53.1607 106.0640 0000991  96.4602 263.6512 15.30192341 88864","mean_motion":15.30192341,"eccentricity":9.91e-5,"inclination_deg":53.1607,"raan_deg":106.064,"arg_perigee_deg":96.4602,"mean_anomaly_deg":263.6512,"bstar":-1.9349e-5,"rev_number":8886,"period_min":94.105816727519,"perigee_km":474.55876845182,"apogee_km":475.91710736451,"semimajor_km":6853.3749379082,"source":"CELESTRAK","updated_at":"2026-05-25T13:38:19.443953Z"}}}